Temp
3 3 3 3 3 3 3 3 3 3 3 2 2 2 3 3 3 3 3 2 2 2 2 2 3 2 2 2 2 2 1 1 1 1 1 1 1 1 1 1 1 1 1 1 1 1 1 1 1 1 1 1 1 1 1 1 1 1 1 1 0 0 0 0 0 0 0 0 0 0 0 0 1 1 1 1 1 1 1 1 1 1 1 1 1 1
4 4 4 4 3 3 3 3 3 3 3 3 2 2 3 3 3 3 3 3 3 3 3 3 3 3 3 2 2 2 1 1 1 1 1 1 1 1 1 1 1 1 1 1 1 1 1 1 1 1 1 1 1 1 1 0 0 0 0 0 0 0 0 0 -0 -0 -0 -0 -0 -0 0 0 0 0 1 1 1 1 1 1 1 1 1 1 1 1
4 4 4 4 4 4 3 3 3 3 3 3 2 2 2 2 3 3 3 3 3 3 3 3 3 3 2 2 2 2 1 1 1 1 1 1 1 1 1 1 1 1 1 1 1 1 1 1 1 1 1 1 1 1 0 0 0 0 0 0 -0 -0 -0 -0 -0 -0 -0 -0 -0 -0 -0 0 0 0 0 0 0 0 1 1 1 1 1 1 1 1
4 4 4 4 4 4 4 3 3 3 3 2 2 2 2 2 2 3 3 3 3 3 3 3 2 2 2 2 2 2 2 1 1 1 1 1 1 1 1 1 1 1 1 1 1 1 1 1 1 1 1 1 0 0 0 0 0 0 0 -0 -0 -0 -0 -0 -0 -1 -1 -1 -1 -0 -0 -0 -0 -0 -0 0 0 0 0 0 0 1 1 1 1 1
4 4 4 4 4 4 4 3 3 3 3 2 2 2 2 2 2 2 2 2 2 2 2 2 2 2 2 2 2 2 2 1 1 1 1 1 1 2 2 2 1 1 1 1 1 1 1 1 1 1 1 0 0 0 0 -0 -0 -0 -0 -0 -0 -0 -0 -1 -1 -1 -1 -1 -1 -1 -0 -0 -0 -0 -0 -0 0 0 0 0 0 1 1 1 1 1
4 4 4 4 4 4 3 3 3 3 3 3 3 3 3 3 3 2 2 2 2 2 2 2 2 2 2 2 2 2 2 1 1 1 1 1 1 2 2 2 1 1 1 1 1 1 1 1 1 1 0 0 0 0 -0 -0 -0 -0 -0 -0 -1 -1 -1 -1 -1 -1 -1 -1 -1 -1 -1 -0 -0 -0 -0 -0 -0 -0 0 0 0 0 1 1 1 1
3 4 4 3 3 3 3 3 3 3 3 3 3 3 3 3 3 3 3 2 2 2 2 2 2 2 2 2 2 2 2 1 1 1 1 1 1 1 1 1 1 1 1 1 1 1 1 1 0 0 0 0 -0 -0 -0 -0 -0 -1 -1 -1 -1 -1 -1 -1 -1 -1 -1 -1 -1 -1 -1 -1 -0 -0 -0 -0 -0 -0 -0 -0 0 0 0 1 1 1
3 3 3 3 3 3 3 4 4 4 4 4 3 3 3 3 3 3 3 3 3 2 2 2 2 2 2 2 2 2 2 2 2 2 1 1 1 1 1 1 1 1 1 1 1 1 0 0 0 0 -0 -0 -0 -0 -1 -1 -1 -1 -1 -1 -1 -1 -1 -2 -1 -1 -1 -1 -1 -1 -1 -1 -1 -0 -0 -0 -0 -0 -0 -0 -0 0 0 0 1 1
2 2 3 3 3 3 4 4 4 4 4 4 3 3 3 3 3 3 3 3 3 3 3 3 3 2 2 2 2 2 2 2 2 2 2 2 1 1 1 1 1 1 1 1 0 0 0 0 -0 -0 -0 -0 -1 -1 -1 -1 -1 -1 -1 -1 -1 -2 -2 -2 -2 -1 -1 -1 -1 -1 -1 -1 -1 -1 -1 -0 -0 -0 -0 -0 -0 -0 0 0 0 0
2 2 2 3 3 3 4 4 4 4 4 4 3 3 3 3 3 3 3 3 3 3 3 3 3 3 3 2 2 2 2 2 2 1 1 1 1 1 1 1 1 1 0 0 0 0 -0 -0 -0 -0 -1 -1 -1 -1 -1 -1 -1 -1 -1 -2 -2 -2 -2 -2 -1 -1 -1 -1 -1 -1 -1 -1 -1 -1 -1 -1 -1 -1 -0 -0 -0 -0 -0 0 0 0
2 2 3 3 3 4 4 4 4 4 4 3 3 3 3 3 3 3 3 3 3 3 3 3 2 2 2 2 2 2 2 2 2 1 1 1 1 1 1 0 0 0 0 0 0 -0 -0 -0 -0 -0 -1 -1 -1 -1 -1 -1 -1 -1 -2 -2 -2 -2 -2 -2 -2 -1 -1 -1 -1 -1 -1 -1 -1 -1 -1 -1 -1 -1 -1 -0 -0 -0 -0 -0 0 0
2 3 3 3 4 4 4 4 4 4 3 3 3 3 4 4 3 3 3 3 3 3 3 2 2 2 2 2 2 2 2 2 2 2 1 1 1 1 1 1 1 0 0 0 0 0 -0 -0 -0 -1 -1 -1 -1 -1 -1 -1 -1 -2 -2 -2 -2 -2 -2 -2 -2 -1 -1 -1 -1 -1 -1 -1 -1 -1 -1 -1 -1 -1 -1 -0 -0 -0 -0 -0 -0 0
2 3 3 3 3 4 4 4 4 4 4 4 4 4 4 4 4 3 3 3 3 2 2 2 1 1 1 1 1 1 2 2 2 2 1 1 1 1 1 1 1 1 0 0 0 0 0 -0 -0 -0 -1 -1 -1 -1 -1 -1 -1 -2 -2 -2 -2 -2 -2 -2 -2 -1 -1 -1 -1 -1 -1 -1 -1 -1 -1 -1 -1 -1 -1 -1 -1 -1 -0 -0 -0 -0
3 3 3 3 4 4 4 4 4 4 4 4 4 4 4 3 3 3 2 2 2 1 1 1 1 1 1 1 1 1 1 2 2 2 2 1 1 1 1 1 1 0 0 0 0 0 0 -0 -0 -0 -0 -1 -1 -1 -1 -1 -2 -2 -2 -2 -2 -2 -2 -2 -2 -2 -1 -1 -1 -1 -1 -1 -1 -1 -1 -1 -1 -1 -1 -1 -1 -1 -1 -0 -0 -0
3 3 4 4 4 4 4 4 4 4 4 4 3 3 3 3 3 2 2 1 1 1 1 1 1 1 1 1 1 1 2 2 2 2 2 1 1 1 1 1 0 0 0 0 0 0 0 -0 -0 -0 -0 -0 -1 -1 -1 -2 -2 -2 -2 -2 -2 -2 -2 -2 -2 -2 -2 -2 -2 -2 -2 -2 -1 -1 -1 -1 -1 -1 -1 -1 -1 -1 -1 -1 -0 -0
3 3 3 3 3 4 4 4 3 3 3 3 3 3 3 3 2 2 1 1 1 1 1 1 1 1 1 1 1 2 2 2 2 1 1 1 1 1 0 0 0 0 0 0 0 0 0 0 -0 -0 -0 -1 -1 -1 -2 -2 -2 -2 -2 -2 -2 -2 -2 -2 -2 -2 -2 -2 -2 -2 -2 -2 -2 -2 -1 -1 -1 -1 -1 -1 -1 -1 -1 -1 -1 -0
3 2 2 3 3 3 3 3 3 3 3 3 3 3 2 2 2 1 1 1 1 1 1 1 1 1 2 2 2 2 1 1 1 1 1 1 0 0 -0 -0 -0 -0 -0 0 0 0 0 -0 -0 -0 -1 -1 -1 -2 -2 -2 -2 -2 -2 -2 -2 -2 -2 -2 -2 -2 -2 -2 -2 -2 -2 -2 -2 -2 -2 -2 -2 -1 -1 -1 -1 -1 -1 -1 -1 -1
3 3 3 3 3 3 3 3 3 3 3 3 3 2 2 1 1 1 1 1 1 1 1 1 1 1 2 2 2 1 1 0 -0 -0 -0 -0 -0 -0 -0 -0 -0 -0 -0 -0 0 -0 -0 -0 -1 -1 -1 -1 -2 -2 -2 -2 -2 -2 -2 -2 -2 -2 -2 -2 -2 -2 -2 -2 -2 -2 -2 -2 -2 -2 -2 -2 -2 -2 -2 -1 -1 -1 -1 -1 -1 -1
3 3 3 3 2 3 3 3 3 3 3 3 2 2 2 1 1 1 1 1 1 1 1 1 1 1 2 2 1 1 0 -0 -1 -1 -1 -1 -0 -0 -0 -0 -0 -0 -0 -0 -0 -0 -0 -1 -1 -1 -1 -1 -2 -2 -2 -2 -2 -2 -2 -2 -2 -2 -2 -2 -2 -2 -2 -2 -2 -2 -2 -2 -2 -2 -2 -2 -2 -2 -2 -2 -2 -1 -1 -1 -1 -1
3 3 3 3 3 3 3 3 3 3 3 2 2 2 2 1 1 1 1 1 1 1 1 1 1 1 1 1 1 0 -0 -1 -1 -1 -1 -1 -0 -0 -0 -0 -0 -0 0 -0 -0 -0 -0 -1 -1 -1 -1 -1 -2 -2 -2 -2 -2 -2 -2 -2 -2 -2 -3 -3 -3 -3 -3 -3 -3 -3 -3 -2 -2 -2 -2 -2 -2 -2 -2 -2 -2 -2 -1 -1 -1 -1
3 3 3 3 3 3 3 3 3 2 2 2 2 1 1 1 1 1 1 1 1 1 1 1 1 1 1 0 0 -0 -1 -1 -1 -1 -1 -1 -0 -0 -0 -0 0 0 0 -0 -0 -0 -0 -1 -1 -1 -1 -1 -2 -2 -2 -2 -2 -2 -2 -2 -3 -3 -3 -3 -3 -3 -3 -3 -3 -3 -3 -3 -3 -3 -3 -2 -2 -2 -2 -2 -2 -2 -2 -1 -1 -1
2 3 3 3 3 3 3 2 2 2 2 1 1 1 1 1 1 1 1 1 1 1 1 0 0 0 0 -0 -0 -1 -1 -1 -1 -2 -1 -1 -1 -0 -0 0 0 0 -0 -0 -0 -0 -1 -1 -1 -1 -1 -1 -2 -2 -2 -2 -2 -2 -2 -3 -3 -3 -3 -3 -3 -3 -3 -3 -3 -3 -3 -3 -3 -3 -3 -3 -3 -2 -2 -2 -2 -2 -2 -1 -1 -1
2 2 2 2 2 2 2 2 2 1 1 1 1 1 1 1 0 0 0 0 0 0 -0 -0 -0 -0 -1 -1 -1 -1 -1 -2 -2 -2 -2 -2 -1 -0 -0 -0 -0 -0 -0 -0 -0 -1 -1 -1 -1 -1 -1 -1 -1 -1 -2 -2 -2 -2 -3 -3 -3 -3 -3 -3 -3 -3 -3 -3 -3 -3 -3 -3 -3 -3 -3 -3 -3 -2 -2 -2 -2 -2 -2 -2 -2 -1
2 2 2 2 1 1 1 1 1 1 1 1 0 0 0 0 -0 -0 -0 -0 -0 -0 -0 -1 -1 -1 -1 -1 -1 -1 -1 -2 -2 -2 -3 -2 -1 -1 -0 -0 -1 -1 -1 -1 -1 -1 -1 -1 -1 -1 -1 -1 -1 -1 -2 -2 -2 -2 -3 -3 -3 -3 -3 -3 -3 -3 -3 -3 -3 -3 -3 -3 -3 -3 -3 -3 -3 -3 -2 -2 -2 -2 -2 -2 -2 -2
2 2 2 1 1 1 1 1 1 1 1 1 0 0 0 0 0 -0 -0 -0 -0 -0 -1 -1 -1 -0 -0 0 0 -0 -1 -2 -2 -3 -3 -2 -1 -1 -1 -1 -1 -1 -1 -1 -1 -1 -1 -1 -1 -1 -1 -1 -1 -1 -2 -2 -2 -3 -3 -3 -3 -3 -3 -3 -3 -3 -3 -3 -3 -3 -3 -3 -3 -3 -3 -3 -3 -3 -2 -2 -2 -2 -2 -2 -2 -2
2 2 2 2 1 1 1 1 1 1 1 1 0 0 0 0 0 0 0 0 0 -0 -0 -0 -0 0 1 1 1 0 -1 -2 -3 -3 -3 -2 -2 -1 -1 -1 -1 -1 -1 -1 -1 -1 -1 -1 -1 -1 -1 -1 -1 -1 -2 -2 -2 -3 -3 -3 -3 -3 -3 -3 -3 -3 -3 -3 -3 -3 -3 -3 -3 -3 -3 -3 -3 -3 -3 -2 -2 -2 -2 -2 -2 -2
1 1 1 1 1 1 1 0 0 0 0 0 0 0 0 0 0 0 0 1 1 0 -0 -0 0 0 1 1 1 0 -1 -2 -3 -3 -3 -3 -2 -2 -1 -1 -1 -1 -1 -1 -1 -1 -1 -1 -1 -1 -1 -1 -1 -2 -2 -2 -3 -3 -3 -3 -3 -3 -3 -3 -3 -3 -3 -3 -3 -3 -3 -3 -3 -3 -3 -3 -3 -3 -3 -3 -2 -2 -2 -2 -2 -2
1 1 1 1 0 0 0 0 0 0 0 0 1 1 0 0 0 0 0 0 0 0 -0 -0 -0 0 0 1 0 -0 -1 -2 -3 -3 -3 -3 -2 -2 -1 -1 -1 -1 -1 -1 -1 -1 -1 -1 -1 -1 -1 -1 -2 -2 -2 -3 -3 -3 -3 -3 -3 -3 -3 -3 -3 -3 -3 -4 -4 -3 -3 -3 -3 -3 -3 -3 -3 -3 -3 -3 -2 -2 -2 -2 -2 -2
1 0 0 0 0 0 -0 -0 -0 0 0 0 0 0 0 -0 -0 -0 0 -0 -0 -0 -1 -1 -0 -0 -0 -0 -0 -1 -2 -2 -2 -3 -3 -3 -2 -2 -2 -1 -2 -2 -2 -2 -2 -2 -2 -1 -1 -1 -1 -2 -2 -2 -2 -3 -3 -3 -3 -3 -3 -3 -3 -3 -3 -3 -4 -4 -4 -3 -3 -3 -3 -3 -3 -3 -3 -3 -3 -2 -2 -2 -2 -2 -2 -2
0 0 -0 -0 -0 -0 -0 -0 -0 -0 -0 -0 -0 -0 -0 -1 -1 -1 -1 -1 -1 -1 -1 -1 -1 -1 -1 -1 -1 -1 -1 -2 -3 -3 -3 -3 -2 -2 -2 -2 -2 -2 -2 -2 -2 -2 -2 -2 -2 -2 -2 -2 -2 -2 -3 -3 -3 -3 -3 -3 -3 -3 -3 -3 -3 -4 -4 -4 -3 -3 -3 -3 -3 -3 -3 -3 -3 -3 -3 -2 -2 -2 -2 -2 -2 -2
-0 -0 -0 -0 -0 -0 -0 -0 -0 -0 -1 -1 -1 -1 -1 -2 -2 -2 -2 -2 -2 -2 -1 -1 -1 -1 -2 -2 -1 -1 -1 -2 -3 -3 -3 -3 -3 -2 -2 -2 -2 -2 -2 -2 -2 -2 -2 -2 -2 -2 -2 -2 -2 -3 -3 -3 -3 -3 -3 -3 -3 -3 -3 -3 -3 -4 -4 -4 -3 -3 -3 -3 -3 -3 -3 -3 -3 -3 -3 -2 -2 -2 -2 -2 -2 -2
0 -0 -0 -0 -1 -0 -0 -0 -0 -1 -1 -1 -1 -2 -2 -2 -2 -3 -3 -3 -2 -2 -2 -2 -2 -2 -2 -2 -2 -2 -2 -2 -3 -3 -3 -3 -3 -3 -3 -3 -2 -2 -2 -2 -3 -3 -2 -2 -2 -2 -2 -3 -3 -3 -3 -3 -3 -3 -3 -3 -3 -3 -3 -3 -3 -4 -4 -4 -3 -3 -3 -3 -3 -3 -3 -3 -3 -3 -3 -3 -2 -2 -3 -3 -3 -3
-0 -0 -1 -1 -1 -1 -1 -1 -1 -1 -1 -1 -1 -2 -2 -3 -3 -3 -3 -3 -3 -3 -3 -3 -3 -3 -3 -3 -3 -2 -3 -3 -3 -3 -3 -4 -3 -3 -3 -3 -3 -2 -3 -3 -3 -3 -3 -2 -2 -3 -3 -3 -3 -3 -3 -3 -3 -3 -3 -3 -3 -3 -3 -3 -3 -4 -4 -4 -3 -3 -3 -3 -3 -3 -3 -3 -3 -3 -3 -3 -3 -3 -3 -3 -3 -3
-1 -1 -1 -1 -1 -1 -1 -1 -1 -1 -1 -1 -2 -2 -2 -3 -3 -4 -4 -4 -4 -3 -3 -3 -3 -3 -3 -3 -3 -3 -3 -3 -3 -4 -4 -4 -4 -3 -3 -3 -3 -3 -3 -3 -3 -3 -3 -3 -3 -3 -3 -3 -3 -3 -3 -3 -3 -3 -3 -3 -3 -3 -3 -3 -4 -4 -4 -4 -3 -3 -3 -3 -3 -3 -3 -3 -3 -3 -3 -3 -3 -3 -3 -3 -3 -3
-1 -1 -1 -1 -1 -1 -1 -1 -1 -2 -2 -2 -2 -2 -3 -3 -4 -4 -4 -4 -4 -4 -4 -4 -4 -4 -4 -3 -3 -3 -3 -3 -3 -4 -4 -4 -4 -4 -4 -3 -3 -3 -3 -3 -3 -3 -3 -3 -3 -3 -3 -3 -3 -3 -3 -3 -3 -3 -3 -3 -3 -3 -3 -4 -4 -4 -4 -3 -3 -3 -3 -3 -3 -3 -3 -3 -3 -3 -3 -3 -3 -3 -3 -3 -3 -3
-1 -1 -1 -1 -1 -1 -1 -2 -2 -2 -2 -2 -3 -3 -3 -4 -4 -4 -4 -4 -4 -4 -4 -4 -4 -4 -4 -4 -4 -3 -3 -3 -4 -4 -4 -4 -4 -4 -4 -4 -4 -4 -4 -4 -4 -4 -4 -4 -4 -4 -4 -4 -3 -3 -3 -3 -3 -3 -3 -3 -3 -3 -4 -4 -4 -4 -4 -3 -3 -3 -3 -3 -3 -3 -3 -3 -3 -3 -3 -3 -3 -3 -3 -3 -3 -3
-1 -1 -1 -1 -1 -2 -2 -2 -2 -3 -3 -3 -3 -3 -4 -4 -4 -4 -4 -4 -4 -4 -4 -4 -4 -4 -4 -4 -4 -4 -4 -4 -4 -5 -5 -5 -5 -5 -4 -4 -4 -4 -4 -4 -4 -4 -4 -4 -4 -4 -4 -4 -4 -4 -4 -4 -4 -4 -3 -3 -4 -4 -4 -4 -4 -4 -4 -3 -3 -3 -3 -3 -3 -3 -3 -3 -3 -3 -3 -3 -3 -3 -3 -3 -3 -3
-1 -1 -1 -2 -2 -2 -2 -3 -3 -3 -3 -3 -4 -4 -4 -4 -4 -4 -4 -4 -4 -4 -4 -4 -4 -4 -4 -4 -4 -4 -4 -4 -5 -5 -5 -5 -5 -5 -5 -5 -5 -4 -4 -4 -4 -4 -4 -4 -4 -4 -4 -4 -4 -4 -4 -4 -4 -4 -4 -4 -4 -4 -4 -4 -4 -4 -4 -4 -4 -3 -3 -3 -3 -3 -3 -4 -4 -4 -4 -4 -4 -4 -4 -4 -4 -3
-2 -2 -2 -2 -2 -3 -3 -3 -3 -3 -4 -4 -4 -4 -4 -4 -4 -4 -4 -4 -4 -4 -4 -4 -4 -4 -4 -4 -4 -4 -4 -5 -5 -5 -5 -5 -5 -5 -5 -5 -5 -5 -5 -5 -5 -5 -5 -5 -5 -4 -4 -4 -4 -4 -4 -4 -4 -4 -4 -4 -4 -4 -4 -4 -4 -4 -4 -4 -3 -3 -3 -3 -4 -4 -4 -4 -4 -4 -4 -4 -4 -4 -4 -4 -4 -3
-2 -2 -3 -3 -3 -3 -3 -4 -4 -4 -4 -4 -4 -4 -4 -4 -4 -4 -4 -4 -4 -4 -4 -4 -4 -4 -4 -4 -4 -4 -4 -4 -5 -5 -5 -5 -5 -5 -5 -5 -5 -5 -5 -5 -5 -5 -5 -5 -5 -5 -5 -5 -5 -4 -4 -4 -4 -4 -4 -4 -4 -4 -4 -4 -4 -4 -4 -4 -3 -4 -4 -4 -4 -4 -4 -4 -4 -4 -4 -4 -4 -4 -4 -4 -4 -3
-3 -3 -3 -3 -3 -4 -4 -4 -4 -4 -4 -4 -4 -4 -5 -5 -4 -4 -4 -4 -4 -4 -4 -4 -4 -4 -4 -4 -4 -4 -4 -4 -5 -5 -5 -5 -5 -5 -5 -5 -6 -6 -6 -6 -6 -5 -5 -5 -5 -5 -5 -5 -5 -5 -4 -4 -4 -4 -5 -4 -4 -4 -4 -4 -4 -4 -4 -4 -4 -4 -4 -4 -4 -4 -4 -5 -5 -5 -5 -4 -4 -4 -4 -4 -4 -3
-3 -3 -3 -3 -4 -4 -4 -4 -4 -4 -4 -4 -4 -4 -5 -5 -5 -4 -4 -4 -4 -4 -4 -4 -4 -4 -4 -3 -3 -4 -4 -4 -4 -5 -5 -5 -5 -5 -5 -6 -6 -6 -6 -6 -6 -6 -6 -6 -5 -5 -5 -5 -5 -5 -5 -5 -5 -5 -5 -4 -4 -4 -4 -4 -4 -4 -4 -4 -4 -4 -5 -5 -5 -5 -5 -5 -5 -5 -4 -4 -4 -4 -4 -3 -3 -3
-3 -3 -3 -4 -4 -4 -4 -4 -4 -4 -4 -4 -4 -4 -4 -4 -4 -4 -4 -3 -4 -4 -4 -4 -4 -4 -3 -3 -3 -3 -4 -4 -5 -5 -5 -5 -5 -5 -5 -6 -6 -6 -6 -6 -6 -6 -6 -6 -6 -6 -5 -5 -5 -5 -5 -5 -5 -5 -5 -4 -4 -4 -4 -4 -4 -4 -4 -4 -5 -5 -5 -5 -5 -5 -5 -5 -5 -5 -4 -4 -4 -4 -3 -3 -3 -3
-3 -3 -3 -4 -3 -3 -3 -3 -3 -3 -4 -4 -4 -4 -4 -4 -4 -4 -4 -3 -4 -4 -4 -4 -4 -3 -3 -3 -3 -3 -3 -4 -4 -5 -5 -5 -5 -6 -6 -6 -6 -6 -6 -6 -6 -6 -6 -6 -6 -6 -6 -6 -6 -6 -5 -5 -5 -5 -5 -4 -4 -4 -4 -4 -4 -5 -5 -5 -5 -5 -5 -5 -5 -5 -5 -5 -5 -4 -4 -4 -3 -3 -3 -3 -2 -2
-4 -3 -3 -3 -3 -3 -3 -3 -3 -3 -4 -4 -4 -4 -4 -4 -4 -4 -4 -3 -3 -4 -4 -4 -4 -3 -3 -3 -3 -3 -4 -4 -4 -4 -5 -5 -5 -6 -6 -6 -6 -6 -6 -6 -6 -6 -6 -6 -6 -6 -6 -6 -6 -6 -5 -5 -5 -5 -4 -4 -4 -4 -4 -5 -5 -5 -5 -5 -5 -5 -5 -5 -5 -5 -5 -5 -5 -4 -4 -3 -3 -3 -2 -2 -2 -2
-4 -4 -3 -3 -3 -3 -3 -3 -3 -4 -4 -4 -4 -4 -4 -4 -4 -4 -4 -4 -4 -4 -4 -4 -3 -3 -3 -3 -3 -4 -4 -4 -4 -4 -4 -5 -5 -5 -6 -6 -6 -6 -6 -6 -6 -6 -6 -6 -6 -6 -6 -6 -6 -6 -5 -5 -5 -4 -4 -4 -4 -5 -5 -5 -5 -5 -5 -5 -5 -5 -5 -5 -5 -5 -5 -5 -4 -4 -3 -3 -3 -2 -2 -2 -2 -2
-4 -4 -3 -3 -3 -3 -3 -3 -3 -4 -4 -4 -4 -4 -4 -4 -4 -4 -4 -4 -4 -4 -4 -3 -3 -3 -3 -3 -3 -4 -4 -4 -4 -4 -5 -5 -5 -5 -5 -6 -6 -6 -6 -6 -6 -6 -6 -6 -6 -6 -6 -6 -6 -5 -5 -5 -5 -4 -4 -5 -5 -5 -5 -5 -5 -5 -5 -5 -5 -5 -6 -6 -6 -5 -5 -5 -4 -4 -3 -3 -2 -2 -2 -2 -2 -2
-4 -4 -4 -3 -3 -3 -3 -3 -3 -4 -4 -4 -4 -4 -4 -4 -4 -4 -4 -4 -4 -4 -3 -3 -3 -3 -3 -3 -4 -4 -4 -4 -4 -5 -5 -5 -5 -5 -6 -6 -6 -6 -6 -6 -6 -6 -6 -6 -6 -6 -6 -6 -6 -5 -5 -5 -5 -5 -5 -5 -5 -5 -5 -5 -5 -5 -5 -5 -6 -6 -6 -6 -5 -5 -5 -5 -4 -3 -3 -2 -2 -2 -2 -2 -2 -2
-4 -4 -4 -3 -3 -3 -3 -3 -4 -4 -4 -4 -4 -4 -4 -4 -4 -4 -4 -4 -4 -4 -3 -3 -3 -3 -4 -4 -4 -4 -4 -5 -5 -5 -5 -5 -5 -6 -6 -6 -6 -6 -6 -6 -6 -5 -5 -5 -5 -5 -6 -6 -6 -5 -5 -5 -5 -5 -5 -5 -5 -5 -5 -5 -5 -5 -6 -6 -6 -6 -6 -6 -5 -5 -5 -4 -4 -3 -3 -2 -2 -2 -2 -2 -2 -1
-4 -4 -4 -3 -3 -3 -3 -4 -4 -4 -4 -4 -4 -4 -4 -4 -4 -4 -4 -4 -4 -4 -3 -4 -4 -4 -4 -4 -4 -4 -5 -5 -5 -5 -5 -5 -6 -6 -6 -6 -6 -6 -6 -6 -6 -5 -5 -4 -4 -4 -5 -5 -6 -6 -5 -5 -5 -5 -5 -5 -5 -5 -5 -5 -6 -6 -6 -6 -6 -6 -6 -5 -5 -5 -4 -4 -4 -3 -3 -2 -2 -2 -2 -2 -2 -1
-4 -4 -4 -4 -4 -3 -4 -4 -4 -4 -4 -4 -4 -4 -4 -4 -4 -4 -4 -4 -4 -4 -4 -4 -4 -4 -4 -4 -4 -5 -5 -5 -5 -5 -5 -5 -6 -6 -6 -6 -6 -6 -6 -6 -6 -5 -5 -4 -4 -4 -4 -5 -5 -5 -5 -5 -5 -5 -5 -5 -5 -6 -6 -6 -6 -6 -6 -6 -6 -6 -5 -5 -5 -4 -4 -4 -3 -3 -2 -2 -2 -2 -2 -2 -1 -1
Height
821 820 819 819 818 817 816 815 815 813 812 811 810 810 809 808 807 806 805 805 804 803 802 801 800 799 798 797 795 794 793 792 791 790 789 788 788 787 786 786 785 784 784 783 782 782 781 780 779 778 777 776 775 774 773 772 770 769 768 767 766 764 763 762 761 760 759 757 757 756 754 753 752 751 750 748 747 746 744 743 742 741 739 738 736 734
820 819 818 817 817 815 814 813 813 812 811 810 809 809 808 807 806 805 804 803 803 802 801 800 799 797 797 795 794 793 792 791 790 789 788 787 786 785 785 784 783 783 782 782 781 780 779 778 778 777 776 775 773 772 771 770 769 767 766 765 764 763 762 760 759 758 757 756 755 754 752 752 750 749 748 747 745 744 743 742 740 739 737 736 734 732
819 818 817 816 816 814 813 812 812 811 810 809 808 807 807 806 805 804 803 802 801 800 799 798 797 796 795 794 792 791 790 789 788 787 786 785 784 784 783 782 782 781 781 780 779 778 778 777 776 775 774 773 772 771 769 768 767 766 765 763 762 761 760 759 757 757 755 754 753 752 751 750 749 747 746 745 744 742 741 740 739 737 736 734 732 731
818 817 816 815 814 813 812 811 810 810 809 808 807 806 805 804 803 802 801 800 799 799 798 797 796 795 793 792 791 790 789 788 787 786 785 784 783 782 781 781 780 780 779 778 777 777 776 775 775 773 772 771 770 769 767 766 765 764 763 762 761 759 758 757 756 755 754 752 752 750 749 748 747 746 745 743 742 741 739 738 737 736 734 733 732 730
816 815 814 814 813 812 811 810 809 808 807 807 806 804 804 803 802 800 799 799 798 797 796 795 794 793 792 791 789 788 787 786 785 784 783 782 781 780 780 779 779 778 777 777 776 776 775 774 773 772 771 770 768 767 766 765 764 762 761 760 759 758 757 755 754 753 752 751 750 749 747 747 745 744 743 742 741 739 738 737 735 734 733 732 730 729
815 814 813 812 812 810 809 808 808 807 806 805 804 803 802 801 800 799 798 797 796 795 794 793 792 792 790 789 788 787 786 785 783 782 781 780 779 779 778 777 777 777 776 775 775 774 773 772 771 770 769 768 767 766 764 763 762 761 760 759 757 756 755 754 752 752 750 749 748 747 746 745 743 742 741 740 739 737 736 735 734 732 732 730 729 727
813 813 812 811 810 809 808 807 807 806 805 804 802 802 801 800 799 798 797 796 795 794 792 792 791 790 789 787 787 785 784 783 782 781 780 779 778 777 777 776 776 775 775 774 774 773 772 771 770 769 767 766 765 764 763 762 761 759 758 757 756 754 753 752 751 750 749 748 747 746 744 743 742 741 740 738 737 736 735 733 732 731 730 728 727 726
812 811 811 810 809 808 807 806 805 805 804 803 802 800 799 798 797 796 795 794 793 792 791 790 789 788 787 786 785 784 783 782 781 780 779 778 777 777 776 775 775 774 774 773 772 771 770 769 768 767 766 765 763 762 761 760 759 758 757 755 754 753 752 750 749 748 747 746 745 744 742 742 740 739 738 737 736 734 733 732 731 730 728 727 726 724
811 810 809 809 808 807 805 804 804 803 803 802 801 799 798 797 795 795 794 793 792 791 790 789 787 787 786 785 784 783 782 781 780 779 778 777 776 776 775 774 773 773 772 771 771 770 768 767 766 765 764 763 762 761 760 758 757 756 755 754 752 751 750 749 748 747 746 744 743 742 741 740 739 737 736 735 734 733 732 731 729 728 727 726 724 722
810 809 808 807 807 806 805 803 802 802 802 800 799 798 797 796 794 793 792 792 791 790 789 788 787 785 784 783 783 782 781 780 779 778 777 776 775 774 773 773 772 771 770 770 769 768 767 766 765 763 762 761 760 759 758 757 756 755 753 752 751 750 748 747 746 745 744 743 742 741 739 738 737 736 735 734 732 731 730 729 728 727 725 724 722 721
809 808 807 806 805 804 804 802 801 800 800 799 798 797 796 795 794 792 790 789 788 788 787 787 786 785 783 782 781 781 780 778 777 776 775 774 773 773 772 771 770 770 769 768 767 766 765 764 763 762 761 760 759 758 757 756 754 753 752 751 749 748 747 746 745 744 742 741 740 739 738 737 735 734 733 732 731 730 728 727 726 725 723 722 721 720
808 807 806 805 804 803 802 801 799 798 798 797 796 795 793 793 792 791 789 787 787 786 786 785 785 784 783 782 780 779 779 777 776 775 774 773 772 772 771 770 769 768 767 767 766 765 763 762 761 760 759 758 757 756 755 754 753 752 750 749 748 747 746 744 743 742 741 740 739 737 736 735 734 732 732 730 729 728 727 726 724 723 722 721 720 718
807 806 805 804 802 802 800 799 798 797 796 795 794 793 792 791 791 790 789 787 787 786 785 784 783 782 782 781 780 778 777 776 775 774 773 772 771 771 770 769 768 767 767 765 764 763 762 761 760 759 758 757 756 755 754 753 752 750 749 748 747 745 744 743 742 741 739 738 737 736 735 733 732 731 730 729 727 726 725 724 723 722 721 719 718 717
805 804 803 802 801 800 799 797 796 795 794 794 793 792 791 791 790 790 788 787 786 786 785 783 782 781 780 779 778 777 776 774 773 772 771 771 770 770 769 768 767 767 766 764 763 762 761 760 758 757 756 755 754 753 752 751 750 749 747 746 745 744 743 742 741 739 738 737 736 734 733 732 731 729 728 727 726 725 723 722 721 720 719 718 717 715
804 803 802 800 799 798 797 797 796 795 794 793 792 792 791 790 789 789 788 787 785 784 784 782 781 779 778 778 777 775 774 773 772 771 770 769 769 769 768 767 766 766 764 763 762 760 759 758 757 756 755 754 753 752 751 750 748 747 746 745 744 742 741 740 739 738 737 735 734 733 732 730 729 728 727 725 724 723 722 721 720 719 717 716 715 714
803 802 801 799 798 797 797 796 795 794 793 792 791 791 790 789 788 788 787 786 784 783 782 781 779 777 776 776 775 774 772 771 770 770 769 768 768 768 767 767 765 764 763 762 761 759 758 757 756 755 754 752 752 751 750 748 747 746 745 744 742 741 740 739 737 736 735 734 732 731 730 729 727 726 725 724 722 721 720 719 718 717 716 714 713 712
802 801 800 799 797 797 796 795 794 793 792 791 790 789 789 788 788 787 786 785 783 782 781 780 779 777 774 773 773 772 772 771 770 769 769 768 767 767 767 766 764 763 762 761 759 758 757 756 755 753 752 751 750 749 748 747 746 745 743 742 741 740 739 737 736 735 733 732 731 730 728 727 726 724 723 722 721 720 718 717 716 715 714 713 712 710
800 799 798 797 797 796 795 794 793 791 790 789 789 788 788 787 787 786 784 783 782 781 779 778 777 775 773 772 771 771 771 770 769 769 768 767 766 766 765 764 763 762 760 759 758 757 756 754 753 752 751 750 748 747 747 745 744 743 742 741 740 738 737 736 735 733 732 731 729 728 727 725 724 723 722 720 719 718 717 716 714 713 712 711 710 708
798 798 797 797 795 794 793 792 791 790 789 788 788 787 786 785 784 783 782 781 780 778 777 775 773 772 772 770 769 769 768 768 768 767 767 766 765 764 764 763 762 760 759 758 757 756 754 753 752 751 749 748 747 746 745 744 743 742 741 740 738 737 736 734 733 732 731 729 728 726 725 724 722 721 720 718 717 716 715 714 712 711 710 709 708 707
797 796 796 795 794 792 791 790 790 789 789 788 787 786 784 783 782 781 780 779 777 776 775 773 772 770 769 768 767 767 767 767 767 766 766 764 763 762 762 762 760 759 757 756 755 754 753 752 750 749 748 747 746 745 744 743 742 741 740 738 737 736 734 733 732 730 729 727 726 725 723 722 721 719 718 717 716 714 713 712 711 710 708 707 706 705
796 795 795 794 793 792 790 789 789 789 788 787 786 784 783 782 780 779 778 777 776 775 774 772 771 770 769 768 767 766 766 766 766 765 764 763 762 761 761 760 759 757 756 755 754 753 752 751 749 748 747 746 744 743 742 742 741 739 738 737 736 734 733 732 730 729 727 726 724 723 722 720 719 718 716 715 714 713 712 710 709 708 707 705 704 703
795 794 793 793 792 791 790 788 788 788 787 786 785 783 782 780 779 777 777 776 775 774 773 772 771 770 769 768 767 767 766 765 765 764 763 762 761 760 759 759 758 757 755 754 753 752 751 749 748 747 745 744 743 742 741 740 739 738 737 736 734 733 731 730 729 727 726 724 723 722 720 719 717 716 715 713 712 711 710 709 707 706 705 704 702 701
794 793 792 792 791 790 789 788 787 786 786 785 783 782 781 780 779 777 776 775 774 773 772 771 770 769 768 767 767 766 765 764 764 763 763 762 760 758 758 758 757 756 754 753 752 751 749 748 747 745 744 743 742 741 740 739 738 737 736 734 733 731 730 728 727 726 724 722 721 720 718 717 716 714 713 712 711 709 708 707 706 704 703 702 701 699
793 792 791 791 790 789 788 787 785 784 784 783 782 782 781 780 778 777 776 775 774 772 771 770 769 767 767 766 765 763 763 763 762 762 762 761 759 758 757 757 756 755 753 752 751 750 748 747 745 744 743 742 741 740 739 738 737 735 734 733 731 730 728 727 725 724 722 721 720 718 717 715 714 713 712 710 709 708 707 705 704 703 701 700 699 697
792 791 790 789 788 787 786 785 784 783 782 782 781 780 780 779 778 777 776 774 773 772 770 769 768 767 765 764 763 762 762 761 762 762 762 761 759 757 757 756 755 754 752 751 750 749 747 746 744 743 742 741 739 738 737 737 735 734 733 731 730 728 727 725 724 722 721 719 718 717 715 714 712 711 710 709 707 706 705 704 702 701 700 698 697 695
790 789 788 788 787 786 785 784 783 782 782 781 780 779 778 777 777 775 774 773 772 770 769 768 767 765 764 763 762 761 761 760 761 761 761 760 759 757 756 756 755 753 752 750 749 748 747 745 743 742 741 739 738 737 736 735 734 732 731 730 728 727 725 724 722 721 719 718 717 715 714 712 711 710 708 707 706 705 703 702 701 699 698 697 695 693
789 788 787 786 785 784 783 782 781 780 780 780 779 778 777 776 775 774 773 772 771 769 768 767 766 764 763 762 761 761 760 760 760 760 760 760 759 757 756 755 754 753 751 750 748 747 746 744 742 741 740 739 737 736 735 734 732 731 730 728 727 725 724 722 721 720 718 717 715 714 712 711 710 708 707 706 704 703 702 701 699 698 696 695 692 691
787 786 785 784 783 782 782 781 780 779 779 778 777 777 776 775 774 772 771 770 770 769 768 767 765 764 762 761 760 760 760 760 760 760 759 759 758 757 755 754 754 752 751 749 747 746 745 743 742 740 739 738 737 735 734 732 731 729 728 727 725 724 722 721 720 718 717 715 714 712 711 709 708 707 706 704 703 702 701 699 698 696 695 693 691 689
786 785 784 783 782 782 781 780 779 778 777 777 776 775 774 774 772 771 770 769 769 768 767 766 765 764 762 761 760 760 760 760 759 759 759 759 758 756 755 754 753 752 751 749 747 745 743 742 741 740 738 737 736 734 733 731 730 728 727 725 724 722 721 720 718 717 715 714 712 711 709 708 707 706 704 703 702 700 699 698 697 695 693 691 689 687
785 784 783 782 782 781 780 779 778 777 776 775 774 773 773 772 772 771 769 769 768 767 767 765 764 763 762 761 760 760 759 759 759 759 759 759 757 756 755 754 753 752 751 750 747 744 742 741 740 739 738 736 735 733 732 730 729 727 726 724 722 721 720 718 717 715 714 712 711 709 708 707 706 704 703 702 700 699 698 697 695 694 692 690 688 686
784 783 782 781 780 780 779 778 777 776 775 774 773 772 772 771 770 770 769 768 768 767 766 765 764 763 762 762 761 760 759 760 759 759 759 759 757 756 755 755 753 752 752 751 749 746 742 739 738 737 737 736 734 732 731 730 728 727 725 723 722 720 719 717 716 714 712 711 710 708 707 706 704 703 701 700 699 697 696 695 694 692 691 688 686 684
783 782 781 780 779 778 777 777 776 775 774 773 772 772 771 770 769 768 768 767 767 766 766 765 764 763 763 763 762 761 760 760 760 759 759 759 758 757 756 755 753 752 751 751 750 748 745 741 737 736 736 735 733 732 730 729 727 726 724 723 721 719 717 716 715 713 711 710 708 707 706 704 703 702 700 699 697 696 695 694 692 691 689 687 685 683
782 781 780 779 778 777 776 775 775 774 773 772 772 771 770 769 768 767 767 767 766 766 765 764 764 763 763 763 762 762 761 761 760 759 759 759 758 757 755 754 753 752 751 750 749 748 746 743 739 737 735 733 732 731 729 728 727 726 724 722 721 719 717 716 714 712 711 709 707 706 704 703 702 700 699 697 696 695 693 692 691 690 688 686 684 682
781 780 779 778 777 776 776 775 774 773 773 772 771 771 770 769 767 767 766 766 765 765 764 764 764 763 763 763 762 762 761 761 760 759 759 758 758 757 755 754 753 752 751 750 748 747 746 743 741 738 735 733 731 730 729 727 726 725 724 722 721 718 717 715 714 712 710 708 707 705 703 702 700 699 697 696 695 693 692 691 689 688 687 685 683 681
780 779 778 777 777 776 775 774 774 773 772 772 771 770 769 768 767 766 765 765 764 764 764 763 763 763 763 763 762 762 761 760 760 759 759 758 757 757 755 754 753 752 751 750 748 747 745 743 741 739 737 733 730 729 728 727 726 724 723 722 720 718 717 715 713 712 710 708 706 705 703 702 700 698 697 695 694 692 691 689 687 686 685 684 682 681
779 778 777 777 776 775 775 774 773 772 772 771 770 770 769 768 767 766 765 764 764 763 763 763 763 763 763 763 762 762 761 760 760 759 758 758 757 757 755 754 753 752 751 750 748 747 745 742 741 739 737 734 731 728 726 726 725 724 722 721 720 718 717 715 713 712 710 708 706 704 703 701 699 697 696 694 692 691 689 688 686 684 683 682 681 679
779 778 777 777 776 775 774 773 773 772 771 771 770 769 768 767 766 765 764 764 763 763 763 763 763 763 762 762 762 761 761 760 759 758 758 757 757 756 755 754 753 752 751 750 748 747 745 743 741 738 737 735 732 729 727 725 724 723 722 720 719 717 716 714 713 711 710 708 706 704 702 701 699 697 695 693 692 690 688 686 684 683 681 680 678 677
779 778 777 777 776 775 774 773 772 772 771 770 769 768 767 767 766 765 764 763 763 763 763 763 763 762 762 762 761 761 760 759 758 757 757 756 756 756 755 754 752 752 751 750 748 747 745 743 741 738 736 734 732 730 728 726 724 722 721 719 718 717 715 714 712 711 709 707 706 704 702 701 699 697 695 693 691 689 687 685 683 681 680 678 676 675
779 778 777 777 776 775 774 773 772 772 771 770 769 768 767 766 765 764 764 763 763 763 763 763 763 762 762 761 761 760 759 758 758 757 756 756 755 755 754 753 752 751 750 749 748 747 745 743 741 739 737 734 731 729 727 726 725 723 721 719 717 715 714 713 712 710 709 707 705 703 702 700 698 697 695 692 691 689 687 684 682 680 678 676 674 672
779 778 777 776 776 775 774 773 772 771 770 769 768 767 767 765 764 764 764 763 763 763 763 763 762 762 762 761 760 759 759 758 757 757 756 755 754 754 753 753 752 751 749 748 747 746 745 743 741 739 737 735 732 729 727 726 725 724 722 720 717 715 713 712 711 710 708 707 705 704 702 700 698 696 694 692 691 689 687 684 682 680 678 677 674 672
779 778 777 776 775 774 773 772 772 771 770 769 768 767 766 765 764 764 764 764 764 764 763 763 762 762 761 760 760 759 758 757 757 756 755 755 754 753 753 752 751 750 749 747 746 745 743 742 740 738 736 734 732 730 728 726 725 724 723 721 718 716 713 712 711 710 708 707 705 704 702 700 698 696 694 692 690 688 686 684 682 680 678 677 675 673
778 777 777 776 775 774 773 772 771 770 770 769 768 767 766 765 765 764 764 764 764 764 763 763 762 762 761 761 760 759 758 757 757 756 755 754 753 753 752 751 750 749 748 747 745 743 742 741 739 737 736 734 732 730 728 726 725 724 723 721 718 716 713 711 710 710 708 707 705 703 702 700 698 696 693 691 689 687 685 683 682 680 678 676 675 673
778 777 776 775 774 773 772 771 771 770 769 769 768 767 766 765 765 765 765 765 764 764 764 763 763 762 761 760 760 759 758 757 756 755 755 754 753 752 751 750 749 748 747 746 744 742 741 740 738 737 736 734 733 731 729 726 725 723 722 721 719 717 714 711 710 709 708 707 705 703 702 700 697 695 693 691 689 687 684 683 681 679 678 676 675 673
777 777 776 775 774 773 772 771 770 770 769 768 768 767 766 766 765 765 765 765 765 764 764 763 763 762 761 760 759 759 758 757 757 755 754 753 752 752 751 750 749 748 747 745 743 742 740 738 737 736 735 734 733 731 729 727 725 723 722 720 719 718 716 713 711 709 707 706 704 703 701 699 697 695 692 690 688 686 684 682 681 679 677 676 675 673
777 776 775 774 773 772 772 771 770 770 769 768 767 767 766 766 766 766 766 765 765 765 764 764 763 762 761 760 759 758 758 757 756 755 754 753 752 752 750 749 748 747 746 744 743 742 740 738 737 736 734 733 732 731 729 727 725 723 721 720 718 717 715 713 712 710 708 706 704 702 701 699 697 695 692 690 687 686 684 682 681 679 677 676 675 673
777 776 775 774 773 772 771 771 770 769 769 768 767 767 767 767 766 766 766 766 765 765 765 764 763 762 761 760 759 759 758 757 756 755 754 753 752 751 750 749 748 746 745 743 742 741 740 738 737 735 734 733 732 730 728 727 725 723 721 719 718 716 714 713 711 710 708 706 704 702 700 699 697 695 692 690 688 686 684 682 681 680 678 677 675 674
777 776 775 774 772 772 771 770 770 769 769 768 768 767 767 767 767 767 766 766 766 765 765 764 763 762 761 760 760 759 758 757 756 755 754 752 752 751 749 748 747 746 744 742 741 740 738 737 736 735 734 732 731 729 728 727 725 723 722 720 718 716 714 712 711 709 708 707 704 702 700 698 697 695 693 690 688 686 684 682 681 680 678 677 675 674
777 776 774 773 772 771 771 770 770 769 769 768 768 767 767 767 767 767 767 766 766 765 765 764 763 762 762 761 760 759 759 757 756 755 754 752 751 750 749 747 746 745 743 742 740 739 737 736 735 734 733 732 731 729 727 726 725 724 722 720 718 716 714 712 711 709 708 706 704 702 701 699 697 695 693 691 688 686 684 682 681 680 678 677 676 674
777 775 774 773 772 771 770 770 770 769 769 768 768 767 767 767 767 767 767 766 766 765 765 764 763 762 762 761 760 760 759 758 757 755 754 753 751 750 748 747 745 744 742 741 739 737 736 735 733 733 732 732 731 729 728 726 725 723 722 721 719 717 715 712 711 709 707 706 703 702 700 699 697 696 694 692 689 687 685 683 681 680 678 677 676 675
777 775 774 773 772 771 770 770 769 769 769 768 768 767 767 767 767 767 767 766 766 765 765 764 764 763 762 762 761 760 759 758 757 756 754 753 752 750 749 747 745 744 742 740 738 737 735 734 732 732 731 730 730 729 728 726 725 723 722 720 719 717 715 713 711 709 707 705 703 701 700 698 697 695 694 692 690 688 685 683 681 680 678 677 676 675
776 775 774 773 772 771 770 770 769 769 768 768 768 768 767 767 767 767 767 766 766 766 765 764 764 763 762 762 761 761 760 759 757 756 755 754 752 751 749 748 746 745 742 741 739 737 735 734 732 731 730 730 729 729 728 727 725 723 722 720 718 717 715 713 711 709 707 706 703 701 699 698 697 695 694 692 690 688 686 683 682 680 678 677 676 675
Wind_Speed
13 13 14 15 15 16 16 16 15 16 17 18 18 17 17 16 17 17 17 16 16 16 17 17 17 17 17 17 18 18 19 20 20 20 19 18 18 18 18 18 18 18 18 19 19 19 20 20 21 21 22 23 24 25 25 25 25 25 25 24 24 24 24 24 24 24 24 25 25 25 26 26 26 26 27 27 27 27 27 27 27 27 28 29 29 29
12 12 13 13 14 15 16 16 15 15 16 16 17 17 17 17 17 17 17 16 16 16 17 17 17 17 17 18 18 19 20 20 20 20 20 19 18 18 18 18 18 18 18 19 19 19 20 20 21 22 22 23 24 25 25 25 24 24 24 24 24 24 24 24 24 24 24 24 25 25 25 25 26 26 26 26 27 27 26 27 27 28 29 29 29 29
12 13 13 13 14 14 15 16 15 14 15 15 16 17 17 18 18 17 17 16 16 16 17 17 17 17 18 18 19 19 19 20 20 20 20 20 19 19 18 18 18 19 19 19 19 19 20 20 21 22 23 24 25 25 25 24 24 23 23 23 24 24 24 24 24 24 24 24 24 25 25 25 25 26 26 26 26 27 27 27 27 28 29 29 29 29
13 14 14 14 14 14 15 15 14 14 14 15 16 17 17 17 17 17 17 17 17 17 17 17 18 18 18 18 18 19 19 19 20 21 21 21 20 19 19 19 19 19 18 18 19 19 20 21 21 22 23 24 25 25 24 24 23 23 23 23 23 24 24 24 24 24 24 24 24 24 25 25 25 25 26 26 26 27 27 27 28 28 28 28 28 29
14 14 14 14 14 14 14 14 14 14 14 15 16 16 16 16 16 17 17 17 17 17 18 17 18 18 18 18 18 18 19 20 21 21 22 21 21 20 19 19 19 18 18 18 19 19 20 21 22 23 24 25 25 24 24 23 23 22 23 23 24 24 24 24 24 24 24 24 24 24 25 25 25 25 26 26 26 27 27 27 27 27 27 27 27 27
15 14 14 13 13 14 14 13 14 14 14 15 15 16 16 16 16 16 17 17 17 17 17 17 17 18 18 18 19 19 20 21 21 21 21 21 21 20 19 19 18 18 18 18 19 20 21 22 23 24 25 25 25 24 23 22 22 22 23 23 24 24 24 24 24 24 24 24 24 24 24 25 25 25 26 26 26 27 27 27 27 27 27 27 27 27
15 14 13 13 14 14 14 15 15 15 14 15 16 16 16 16 16 16 17 17 16 17 17 17 18 18 18 18 19 19 19 19 19 19 19 19 19 19 18 17 17 17 17 18 19 20 21 22 24 25 25 25 24 23 22 22 22 22 23 23 23 24 24 24 24 23 23 23 24 24 24 25 25 25 26 26 27 27 27 26 26 26 27 27 27 28
14 14 13 13 14 15 16 16 15 15 15 15 16 17 17 17 16 17 17 17 16 16 17 17 18 18 17 17 18 18 17 17 17 17 17 16 16 16 16 16 16 16 17 18 20 21 22 24 25 25 25 24 23 23 22 22 22 23 23 23 23 23 23 23 23 23 23 23 24 24 25 25 25 26 26 26 27 27 26 26 26 26 27 27 28 28
14 14 14 14 15 15 16 16 16 15 15 15 16 17 17 18 18 17 17 17 17 17 17 17 18 18 18 17 17 17 17 17 17 17 16 16 16 15 15 15 16 17 18 19 20 22 23 24 25 25 24 23 23 22 22 22 22 23 23 23 23 23 23 23 23 23 23 23 24 24 25 25 25 26 26 26 26 26 26 26 26 26 27 27 28 28
13 14 15 15 15 15 16 17 17 16 15 16 16 17 17 18 18 18 18 17 17 17 17 17 18 19 19 18 17 16 17 17 17 17 17 17 17 17 17 17 18 19 19 20 21 23 24 24 24 24 23 22 22 21 22 22 22 22 23 23 23 23 23 23 23 23 23 24 24 25 25 25 26 26 26 26 26 26 26 26 26 27 27 27 27 27
13 14 14 15 15 15 16 17 17 17 16 16 16 16 16 16 16 16 17 18 18 17 17 17 18 18 19 18 17 17 17 17 18 17 17 17 17 17 17 17 18 19 19 20 21 22 23 23 23 22 22 21 21 21 21 22 22 22 22 23 23 23 22 22 23 23 23 24 24 25 25 26 26 26 26 26 26 26 26 26 26 26 27 26 26 27
13 13 13 14 15 16 16 17 17 16 15 14 14 15 16 14 14 15 17 18 19 19 19 19 18 18 18 18 18 18 17 17 17 17 16 15 14 14 14 14 15 16 17 17 19 20 21 22 21 21 20 20 20 20 21 21 21 22 22 22 22 22 22 23 23 23 23 24 25 25 25 26 26 26 26 26 26 26 26 26 26 26 26 26 26 26
12 12 13 14 15 15 15 15 15 14 13 13 14 15 16 16 16 17 18 19 19 19 19 19 18 17 17 17 17 18 18 18 17 17 15 14 13 12 12 12 13 14 15 16 17 18 19 19 19 19 19 19 19 19 20 20 21 22 22 22 22 22 22 23 23 23 24 24 25 25 26 26 26 26 26 26 26 26 26 26 26 26 26 26 26 26
13 13 13 14 14 15 15 15 15 15 15 16 16 17 17 18 18 18 18 18 18 18 18 18 18 18 17 17 17 18 18 18 17 16 15 14 13 12 12 13 14 14 15 16 17 18 18 18 18 18 18 18 18 19 19 20 21 22 22 22 22 22 22 23 23 23 24 24 25 25 25 26 26 26 26 26 26 26 26 26 26 26 26 26 26 26
13 13 14 14 15 15 16 16 16 17 17 17 17 17 18 18 17 17 17 17 18 17 17 18 19 19 17 17 17 18 18 17 16 15 15 14 13 12 12 13 14 15 15 16 17 18 18 18 18 17 17 17 18 18 20 21 21 22 22 22 22 22 23 23 23 24 24 24 25 25 25 26 26 26 26 25 25 25 26 26 26 26 26 26 26 26
13 14 14 14 15 16 16 16 16 17 18 17 17 17 17 17 17 16 15 16 17 17 17 17 17 17 17 16 16 16 16 16 15 14 13 14 13 12 12 13 14 15 16 17 18 18 18 17 17 17 17 17 18 19 21 21 22 22 22 22 22 22 23 23 23 24 24 25 25 25 25 26 26 26 26 25 25 25 25 26 26 26 26 26 26 27
14 14 14 14 15 16 17 17 17 18 18 18 17 17 16 16 16 15 15 16 16 15 15 14 13 12 13 15 15 12 11 11 10 11 11 13 12 12 11 12 14 15 17 18 18 18 17 17 17 17 17 18 19 21 21 22 22 22 22 22 22 23 23 23 24 24 24 25 25 25 25 26 26 26 25 26 25 25 25 26 26 26 26 26 26 26
14 14 14 14 15 16 17 18 18 18 18 17 17 17 16 15 15 15 16 16 15 15 14 14 12 11 11 13 13 10 9 8 7 8 10 13 14 13 13 13 14 16 17 18 17 17 17 17 17 17 18 19 20 21 22 22 21 21 21 22 22 23 23 23 24 24 24 25 25 25 25 26 26 25 25 25 25 26 26 26 26 26 26 26 26 26
14 14 14 15 16 17 18 18 19 18 18 17 17 16 16 15 15 16 16 17 16 16 15 14 14 14 14 15 14 12 12 11 10 10 11 13 15 15 14 14 15 16 17 17 17 16 16 17 17 18 18 19 20 21 21 21 21 21 21 22 22 23 23 23 24 24 24 25 25 25 25 25 25 25 25 25 25 26 26 26 26 26 26 26 26 26
15 15 15 16 17 18 19 19 19 18 18 18 17 17 16 16 16 16 17 17 17 16 16 15 15 15 16 16 15 13 13 13 12 11 12 15 16 16 14 14 14 15 15 16 16 16 16 17 17 18 18 19 20 20 20 20 21 21 21 22 22 23 23 23 24 24 24 25 25 25 25 25 25 25 25 25 25 26 26 26 26 26 26 26 26 26
16 16 16 17 18 19 20 20 19 19 19 20 20 19 19 17 16 16 17 17 17 17 16 15 15 16 16 16 14 14 14 14 12 12 14 15 15 15 14 13 13 14 15 15 16 16 16 17 17 18 18 19 19 20 20 20 20 21 21 22 22 23 23 23 24 24 24 24 24 24 25 25 25 25 25 25 25 25 25 25 25 25 26 26 26 26
17 18 18 18 18 19 20 21 20 20 21 22 22 21 20 18 17 18 18 17 17 17 16 17 17 18 17 16 16 17 18 16 14 13 13 13 14 14 13 12 12 13 14 16 16 16 17 17 18 18 18 19 19 20 20 20 20 20 21 22 22 23 23 24 24 24 24 24 24 24 24 24 24 24 25 25 25 25 25 25 25 25 25 25 26 26
19 20 20 20 19 19 20 20 21 21 21 21 20 20 20 19 19 18 18 17 17 18 18 19 20 20 20 21 21 20 17 15 14 13 10 9 11 13 12 11 11 13 14 16 16 16 17 17 18 18 18 18 19 19 19 19 19 20 21 22 22 23 23 24 24 24 24 24 24 24 24 24 24 24 24 24 24 24 24 25 25 25 25 25 26 26
20 20 20 20 20 21 21 21 21 21 21 20 19 19 20 21 21 21 21 20 20 20 20 19 18 17 17 17 16 14 11 11 11 10 7 8 10 11 11 11 11 13 15 15 15 16 17 17 18 18 18 18 18 18 18 18 18 19 21 22 22 23 23 23 24 24 24 24 24 24 24 24 24 24 24 24 24 24 24 24 24 25 25 25 26 27
20 21 21 22 23 23 22 22 21 20 19 19 19 19 20 21 21 21 21 20 20 19 18 16 14 14 15 14 13 10 7 8 8 6 6 7 9 11 11 11 11 13 14 15 15 16 17 18 18 18 17 17 17 17 17 17 18 20 21 22 23 23 23 23 23 23 23 24 24 24 24 24 24 24 24 24 23 24 24 24 24 24 25 26 27 27
22 23 24 25 25 25 24 22 20 19 18 18 19 19 20 20 21 21 21 20 19 18 17 15 14 14 16 15 13 9 5 5 6 5 5 6 8 10 11 11 11 12 14 15 16 16 17 18 18 18 17 17 16 16 16 17 19 20 21 22 22 22 22 22 23 23 23 24 24 24 24 24 24 23 23 23 23 24 24 24 24 25 25 26 27 27
22 22 23 24 24 24 23 22 21 20 20 20 20 20 20 21 21 21 20 19 18 17 16 14 14 15 17 16 12 7 3 3 4 4 4 5 7 9 11 11 11 12 14 15 16 16 17 18 18 17 17 16 16 16 17 18 20 21 21 22 21 21 21 22 22 23 23 24 24 24 24 23 23 23 23 23 23 23 24 24 24 25 26 26 26 25
19 20 20 20 20 20 20 20 20 21 22 22 23 22 21 20 19 19 19 19 18 16 15 14 14 13 14 13 11 7 3 3 3 3 3 5 6 9 10 11 11 12 13 15 16 17 17 17 16 16 16 16 16 17 18 19 20 21 21 21 20 20 21 21 22 23 24 24 24 24 23 23 23 23 23 23 23 23 23 24 24 25 25 25 24 24
17 17 17 18 18 18 18 19 20 21 22 23 23 23 20 18 16 16 17 17 16 15 15 15 14 14 13 12 9 6 4 3 2 2 3 4 7 9 10 11 11 12 13 14 16 16 16 15 15 14 15 15 16 17 18 19 20 20 20 20 20 20 20 21 22 23 24 24 24 24 23 23 23 23 23 23 23 23 23 24 24 24 24 24 23 23
16 17 17 16 16 17 18 19 20 20 20 20 21 20 18 15 13 14 15 14 14 14 14 14 14 14 11 9 6 5 3 1 0 1 4 5 7 9 10 11 12 12 13 13 12 11 13 15 15 14 14 15 17 18 18 19 19 19 19 19 19 19 20 21 22 24 24 24 24 23 23 23 23 23 23 23 23 23 23 24 24 24 24 23 23 23
16 17 17 16 17 18 19 19 19 18 17 17 17 16 15 13 11 12 13 13 13 13 13 13 12 10 7 5 4 3 2 2 2 3 5 6 7 9 11 11 12 12 12 11 7 5 8 13 15 15 15 16 17 18 18 18 19 18 18 18 19 19 20 21 22 23 24 23 23 22 22 22 23 23 23 23 23 24 24 24 24 24 24 24 23 23
17 17 17 16 17 18 18 17 17 16 15 14 13 12 12 12 12 12 12 12 12 12 12 11 9 6 5 4 3 3 4 4 4 5 6 6 8 9 10 11 12 12 12 11 10 7 5 8 14 18 18 18 18 19 18 18 18 18 18 18 18 19 20 21 21 22 22 22 22 22 22 22 22 23 23 23 23 24 24 24 24 24 24 24 24 24
16 16 15 15 15 15 15 14 14 14 13 12 11 10 10 11 13 13 13 12 11 11 10 8 5 4 4 4 4 5 5 5 5 6 6 7 8 9 10 11 12 13 13 12 12 12 10 12 15 19 20 20 19 19 19 18 17 17 17 18 18 19 20 20 20 20 21 21 22 22 22 22 22 22 23 23 23 23 24 24 24 24 24 24 24 23
14 14 14 14 13 13 13 13 13 12 12 11 11 10 10 11 13 14 13 11 10 10 9 7 4 3 4 4 5 5 6 5 6 6 7 7 8 9 10 11 12 12 13 13 13 14 14 16 17 18 19 20 20 19 18 17 17 16 17 17 18 19 19 20 20 20 20 20 20 21 21 21 21 22 22 22 23 23 24 25 25 25 24 24 23 23
13 13 12 12 12 12 12 12 12 12 12 11 10 10 10 11 13 15 14 11 9 8 8 6 4 3 4 4 5 6 6 7 7 8 8 8 8 9 10 11 11 12 12 13 13 13 14 16 17 18 18 19 20 20 18 16 16 16 17 17 18 18 19 19 19 19 19 20 20 20 20 20 21 21 22 22 23 24 25 26 26 25 24 23 22 22
12 12 11 11 12 12 12 12 12 12 11 11 10 10 11 12 14 15 13 9 6 5 4 3 3 3 4 5 6 7 7 8 8 8 8 8 8 9 9 10 11 12 12 13 14 14 14 15 17 18 18 18 18 18 18 17 17 17 17 17 18 18 18 18 18 18 19 19 19 20 20 20 21 21 22 23 24 25 25 25 24 23 23 22 22 22
11 11 11 11 11 12 12 12 12 12 12 11 11 11 12 13 15 15 11 7 4 2 2 2 3 4 5 6 7 7 8 9 9 9 9 9 8 8 9 10 11 12 12 13 14 15 15 16 17 17 17 16 15 16 18 19 19 18 18 18 18 18 18 18 17 17 18 19 19 20 20 21 21 22 23 23 24 24 24 23 23 22 22 22 22 22
11 11 11 11 12 12 12 12 12 12 12 12 12 12 13 15 15 13 8 4 2 1 2 3 4 5 6 7 7 8 9 10 10 11 11 11 10 9 9 10 11 12 12 13 14 15 15 15 13 13 14 15 17 17 18 19 19 19 19 19 19 18 18 17 17 17 18 19 19 20 20 21 21 22 22 23 23 22 22 22 23 23 23 24 24 23
11 11 11 12 12 12 12 12 13 13 12 12 12 13 14 15 13 10 5 2 1 1 2 3 4 5 6 7 8 8 9 9 10 11 11 12 11 11 10 10 11 12 12 13 13 14 15 15 14 13 13 15 17 18 18 18 17 18 19 20 20 19 17 17 17 18 18 18 19 20 20 21 21 21 22 22 22 22 22 23 23 24 24 25 25 25
11 11 12 12 12 12 12 12 13 13 13 13 13 13 13 12 9 6 2 1 1 2 3 4 5 6 7 8 8 8 9 9 10 11 11 12 12 11 11 10 10 11 12 13 13 14 15 15 16 16 16 16 17 18 18 18 17 18 18 18 18 18 18 18 18 18 17 17 18 19 20 21 21 21 22 21 21 22 22 22 23 24 24 24 23 23
11 12 12 12 12 12 12 12 13 12 12 12 12 11 11 9 7 4 1 1 1 2 3 5 6 7 8 8 7 7 8 10 11 11 11 11 11 12 12 12 12 12 12 14 14 15 15 16 16 17 17 17 17 18 18 17 17 17 17 17 17 19 20 19 18 17 17 17 18 19 20 21 21 22 22 22 22 22 23 23 23 24 24 23 22 22
11 11 12 12 12 12 12 12 12 12 12 11 10 9 9 7 5 2 1 0 1 3 4 6 7 7 7 6 5 5 6 9 11 12 12 11 11 12 13 14 13 13 13 14 15 15 15 15 16 16 16 16 16 16 17 17 17 16 16 16 17 19 20 19 17 16 17 18 19 19 20 20 21 22 23 23 23 23 23 24 23 23 23 23 22 22
11 11 11 11 12 12 11 11 11 11 11 10 9 9 8 5 3 2 2 1 2 3 6 7 8 7 7 7 7 6 7 8 10 11 11 11 12 13 14 14 14 14 14 14 15 16 16 15 15 14 15 15 15 15 16 17 17 16 16 16 17 17 16 17 18 18 18 19 19 19 20 21 21 22 23 24 24 24 24 23 23 22 22 22 22 22
11 11 11 11 11 11 11 10 11 11 11 9 9 8 6 3 1 1 2 2 3 5 6 7 8 8 8 8 8 8 8 8 8 8 9 10 11 12 12 12 13 14 14 14 15 15 15 15 14 14 13 13 13 14 15 15 16 16 16 16 16 16 15 17 19 20 20 20 20 20 21 22 23 23 24 23 23 23 23 23 23 23 23 23 22 22
11 11 11 11 11 11 11 10 11 11 10 8 8 7 4 2 0 1 2 3 3 4 5 6 7 8 8 9 9 10 10 10 9 8 8 9 9 10 10 11 13 14 15 15 14 14 14 14 14 14 13 13 13 13 14 14 15 16 16 16 16 17 17 18 18 18 18 19 20 21 22 23 23 23 22 22 22 22 22 22 22 22 22 22 22 21
11 11 12 11 11 11 11 10 10 9 8 6 6 5 3 1 1 2 3 3 4 4 6 7 8 8 9 9 10 10 11 11 11 11 10 10 11 11 12 13 14 15 15 15 15 14 14 14 14 14 13 13 12 12 13 13 14 15 16 17 17 17 17 18 17 17 18 19 20 22 23 24 23 21 20 21 21 22 22 22 22 21 22 22 22 22
12 12 12 12 11 11 11 10 9 7 6 5 4 3 2 2 2 3 3 3 4 5 6 8 8 9 9 10 10 10 10 11 12 12 12 12 12 13 14 15 15 15 15 15 15 14 14 14 14 13 13 12 12 12 12 12 13 14 16 17 18 18 18 18 17 18 18 19 20 22 24 24 22 20 19 20 21 21 21 22 22 22 21 22 22 21
12 13 13 12 12 12 11 10 8 6 5 3 3 2 2 2 3 3 3 3 4 5 7 9 9 10 10 10 10 10 10 11 12 12 13 13 14 14 16 17 17 16 15 14 14 14 13 14 14 13 12 11 11 11 12 12 13 14 15 16 17 17 17 18 18 19 19 20 21 23 23 22 20 19 19 19 18 19 20 21 21 21 21 21 21 20
13 13 13 13 13 12 11 10 8 6 4 3 2 3 3 3 3 3 3 3 4 5 7 9 9 10 10 10 10 10 11 11 12 12 13 13 14 16 17 18 18 17 16 14 13 13 12 12 11 11 11 10 10 10 11 12 13 14 15 15 16 16 17 18 19 19 20 21 23 24 23 21 19 19 18 16 16 17 18 19 20 20 20 20 20 19
13 13 13 13 13 12 11 9 7 6 4 3 3 3 4 4 4 4 3 4 4 6 7 8 8 9 9 9 10 11 11 12 12 12 13 13 15 16 17 18 18 17 16 15 14 13 12 10 8 8 8 8 8 9 10 12 14 15 15 14 15 15 16 18 18 19 21 22 24 24 23 21 20 18 16 15 15 16 16 17 18 19 19 19 19 18
14 14 14 13 13 12 10 8 7 5 4 3 3 3 4 4 4 4 4 4 4 6 7 8 8 8 8 9 10 10 11 11 12 12 13 14 14 15 16 16 17 17 16 15 15 13 12 10 8 6 5 5 6 7 9 11 14 15 15 15 15 15 16 17 19 20 22 22 23 23 22 21 19 18 16 15 14 14 15 16 16 18 19 19 19 18
Wind_Direction
285 285 285 284 283 283 285 287 287 286 287 290 292 294 294 293 292 291 289 286 284 282 282 282 282 282 281 282 284 287 292 297 301 303 303 299 294 290 288 288 290 292 294 296 297 299 300 301 302 304 305 307 308 309 310 310 309 308 307 307 306 306 306 306 306 306 306 305 305 305 305 305 305 305 306 306 306 307 308 307 306 305 303 300 299 298
284 285 284 284 284 284 286 289 288 285 285 287 289 291 293 291 290 289 287 284 282 281 281 281 281 281 281 282 282 285 288 293 297 300 302 299 295 291 288 288 289 291 292 294 296 297 299 300 302 303 305 307 308 309 309 309 308 307 307 306 305 305 305 305 305 306 306 305 305 305 305 305 305 305 305 306 306 306 307 306 305 304 302 303 304 306
284 284 284 282 281 281 284 288 288 285 284 285 287 289 290 290 290 288 286 284 283 281 279 280 280 281 281 282 283 284 286 290 294 297 300 299 296 292 289 288 288 290 291 293 295 297 298 300 301 303 305 307 308 309 309 308 307 306 306 305 305 305 305 305 305 305 305 305 305 304 304 305 305 305 305 305 306 306 306 306 305 304 305 306 309 310
282 283 283 283 282 281 283 286 287 286 285 285 287 288 288 287 287 285 283 283 282 281 280 279 279 280 281 282 282 283 285 288 291 295 298 299 297 294 290 289 288 289 291 293 295 296 298 300 302 304 306 307 308 308 308 307 306 305 304 304 304 304 304 305 305 305 304 304 304 304 304 304 304 304 305 305 305 306 305 305 305 306 307 307 307 307
280 281 283 284 284 284 284 286 287 287 287 287 287 287 286 285 284 283 282 282 281 280 280 279 279 279 280 281 281 282 284 286 289 293 296 298 298 296 293 291 290 290 292 293 294 296 298 300 302 304 305 307 307 307 306 305 305 304 303 303 304 304 304 304 304 304 304 304 303 303 303 303 303 304 304 305 305 305 305 305 305 306 306 306 305 304
279 280 282 283 284 286 288 288 289 289 289 288 288 286 285 284 284 283 282 281 280 279 279 279 280 280 280 280 281 282 284 286 288 291 295 298 299 298 295 293 291 291 291 292 294 296 297 300 302 303 305 306 306 306 305 304 304 303 303 303 303 303 304 304 304 304 304 303 303 302 302 303 303 304 304 304 304 305 305 305 306 306 305 305 304 304
279 280 281 283 284 286 289 290 290 290 289 289 290 289 287 287 286 285 284 282 280 279 280 282 282 281 281 281 281 282 284 286 287 289 291 294 296 296 294 292 290 289 290 291 294 296 298 300 301 303 304 305 305 304 303 303 302 303 303 303 304 304 305 304 304 303 303 303 302 302 302 303 304 304 304 304 305 305 306 306 306 305 305 304 304 303
279 281 283 285 288 290 290 289 289 289 288 289 290 291 291 291 289 288 289 287 284 282 283 285 286 285 284 283 283 284 285 286 287 288 288 289 290 289 288 286 286 286 288 291 294 296 298 300 301 303 303 303 303 302 302 302 302 302 303 303 304 305 305 305 304 304 303 303 302 302 303 303 304 304 305 305 305 306 306 306 306 305 304 304 304 304
277 282 284 285 288 291 291 291 290 288 287 287 287 289 292 293 293 292 292 291 290 288 288 289 290 290 288 286 285 285 286 286 287 287 287 286 285 284 284 284 285 287 289 292 295 297 299 301 302 302 302 302 301 301 301 301 301 302 302 303 304 305 305 304 304 303 303 303 303 303 303 304 304 305 305 305 305 305 305 305 305 304 304 304 304 305
275 280 284 286 287 288 289 290 291 290 288 286 285 286 288 290 292 293 293 292 292 292 292 292 293 293 292 289 287 287 288 287 286 285 283 282 282 282 282 284 287 289 291 294 297 300 301 301 301 301 300 300 299 300 300 301 301 302 303 304 304 305 304 304 304 304 304 304 304 304 304 304 305 305 305 305 305 305 305 304 304 303 304 304 305 306
277 280 283 287 288 287 286 288 290 291 289 286 285 284 283 282 283 287 292 295 296 296 296 295 294 294 294 292 290 289 289 289 288 286 283 281 280 280 281 284 287 291 293 295 298 300 301 301 300 300 299 298 298 299 300 300 301 302 303 304 305 305 304 304 304 304 304 304 304 305 305 305 306 306 306 306 305 305 304 304 303 304 304 305 306 306
279 283 285 287 289 289 289 288 288 288 286 284 285 288 288 287 286 289 295 298 300 301 300 297 294 292 290 290 290 291 290 289 288 287 285 283 280 279 280 283 287 290 293 295 297 299 300 300 299 298 297 297 297 298 299 300 301 302 303 304 305 305 304 304 304 305 305 305 305 305 306 306 307 307 307 306 306 305 304 304 304 304 305 305 305 305
279 282 285 287 288 288 288 287 288 288 285 286 291 295 299 300 300 300 299 299 299 299 299 297 294 291 287 286 287 288 288 286 284 283 282 280 280 280 281 284 287 290 293 295 296 298 299 299 297 296 296 296 296 298 299 301 302 303 304 305 305 305 305 305 305 305 305 306 306 306 307 307 307 307 307 306 306 305 305 304 305 305 305 305 304 304
281 283 284 285 285 286 288 291 294 295 295 296 297 298 299 301 302 302 300 297 296 295 295 293 292 291 289 287 285 284 284 282 280 278 276 275 276 278 282 285 287 289 292 294 295 296 297 297 296 295 294 295 297 299 301 302 303 304 304 305 305 305 305 305 305 306 306 307 307 307 308 308 308 307 307 306 306 305 304 305 305 305 305 304 304 304
283 286 287 287 288 291 294 298 300 299 298 298 297 297 298 299 300 299 297 295 295 295 295 293 292 292 290 288 285 282 280 277 275 273 273 273 275 277 282 285 287 289 291 292 293 294 296 295 294 294 294 295 297 300 302 303 303 304 305 305 304 304 305 305 306 307 308 308 308 308 308 308 308 307 307 306 305 305 304 305 305 305 304 303 303 303
284 285 285 287 290 292 295 297 297 296 296 296 296 297 299 299 298 296 293 292 294 297 297 297 296 295 292 289 286 284 282 279 274 272 273 275 277 279 282 285 287 288 290 291 292 293 294 294 293 293 294 295 297 300 302 302 303 303 304 304 304 304 305 306 307 308 308 308 308 308 308 308 308 307 307 306 306 305 305 304 304 303 303 303 303 303
279 279 281 284 287 290 293 294 294 293 295 296 297 298 297 295 292 290 289 289 291 292 291 291 292 294 295 295 294 291 288 285 281 277 276 278 280 281 282 284 285 287 289 290 290 291 292 293 293 293 294 295 297 300 301 302 302 303 303 303 304 305 307 308 308 308 308 309 309 309 308 308 308 307 306 306 306 305 304 304 303 302 303 303 303 303
277 280 283 285 287 289 292 293 294 294 296 298 298 297 293 287 284 283 283 284 284 282 281 280 279 281 287 291 294 295 290 286 283 282 280 280 282 283 283 282 282 284 287 287 288 289 291 291 292 292 293 295 297 299 300 300 301 302 303 304 305 306 308 308 308 308 309 309 309 309 308 308 307 307 306 306 306 305 304 304 303 303 303 304 304 304
282 283 284 285 286 288 290 293 295 298 299 299 297 293 289 285 283 282 282 280 278 275 274 274 273 273 276 278 280 283 282 281 281 280 281 282 285 285 284 282 282 283 284 285 286 288 290 291 292 292 293 294 296 297 298 299 300 301 303 305 306 307 308 308 309 309 309 309 309 308 308 308 307 307 306 306 306 305 305 304 304 304 304 304 304 304
285 283 281 284 288 291 293 295 297 299 299 296 293 288 284 284 284 283 281 280 277 274 272 271 271 271 271 271 272 273 274 278 281 283 283 286 287 287 285 283 282 282 283 284 287 291 292 293 294 294 295 295 296 297 297 299 300 302 303 305 307 308 309 309 309 309 309 309 308 308 308 308 307 307 306 306 306 305 305 305 305 304 304 304 304 304
283 282 282 286 290 294 295 297 298 297 295 293 289 285 283 282 282 281 280 280 279 278 278 277 278 279 279 278 277 277 278 282 285 286 287 288 287 286 286 284 283 283 284 286 290 293 294 296 296 296 296 296 296 297 298 299 301 302 304 305 307 308 309 310 310 310 310 309 309 309 308 308 307 307 307 306 306 305 305 305 305 304 304 304 304 304
281 283 286 288 290 291 293 295 295 295 293 290 286 284 284 284 284 284 285 285 286 288 290 291 292 292 292 290 288 287 285 286 284 283 286 286 285 286 287 288 287 286 287 289 293 295 297 297 297 297 296 297 297 298 299 300 301 303 304 306 307 308 309 310 310 310 310 310 310 309 309 309 308 308 307 307 306 306 305 305 305 305 304 304 304 304
281 284 288 290 289 289 289 291 292 292 291 288 286 286 288 289 290 291 293 293 294 295 297 297 297 296 294 291 288 286 283 281 278 277 278 280 283 287 291 292 290 287 287 291 295 298 299 299 298 298 298 298 299 299 300 300 302 303 305 306 307 308 309 310 310 310 310 310 310 310 310 309 309 308 307 307 306 306 306 306 306 306 306 305 305 305
284 286 289 290 289 288 287 287 289 290 291 293 294 295 297 297 297 296 296 297 298 299 298 298 296 294 291 289 284 278 269 268 269 270 269 275 282 288 293 294 292 289 290 293 297 300 301 300 300 300 301 300 300 300 301 301 303 304 306 307 308 308 308 309 309 309 310 310 310 310 310 310 309 309 308 308 307 307 307 307 307 307 307 306 306 305
287 289 290 291 290 289 289 289 289 293 298 304 307 309 309 308 307 306 306 304 302 299 297 294 292 292 294 291 284 270 248 248 255 261 267 279 286 291 294 295 293 292 294 297 300 302 303 302 302 302 303 302 302 302 302 303 304 306 307 307 307 308 308 308 309 310 310 310 311 311 311 310 310 310 309 309 308 308 308 308 307 307 307 307 306 305
289 290 290 290 290 290 291 293 297 302 307 310 311 311 311 310 308 307 305 303 301 299 297 294 292 294 298 296 289 274 242 243 251 259 266 281 291 295 297 298 297 296 298 300 303 305 304 304 304 304 304 304 304 305 305 306 306 307 307 307 307 307 308 308 309 310 311 311 312 312 312 312 311 311 310 309 309 309 309 308 308 308 308 308 306 305
289 289 289 290 290 291 294 297 302 307 310 310 310 309 308 307 306 305 304 304 304 303 301 298 297 297 298 298 293 283 251 241 251 258 264 279 289 295 299 301 302 302 302 303 305 305 305 304 304 305 305 306 306 307 307 308 308 308 308 307 307 307 308 309 310 311 312 313 313 314 314 314 313 312 311 310 310 309 309 309 309 309 309 308 306 304
292 292 292 294 296 300 304 307 308 309 309 309 309 308 306 305 303 301 301 303 305 304 299 296 295 295 295 294 292 287 269 250 241 246 269 283 289 294 300 305 307 308 308 307 306 306 305 304 305 306 306 307 308 309 309 309 310 309 309 308 308 308 308 310 311 313 314 315 315 316 315 315 315 314 313 312 311 310 309 309 309 309 309 307 306 304
299 299 300 302 305 307 309 308 306 304 305 306 307 307 304 300 297 295 296 300 301 298 294 292 290 289 289 290 289 286 273 251 229 243 296 298 294 296 303 309 312 313 313 312 310 309 307 307 307 308 308 309 310 310 311 311 312 312 311 310 309 309 310 311 313 314 315 316 317 317 317 316 316 316 315 314 313 312 311 311 311 310 309 308 306 304
305 304 304 303 304 304 304 303 301 300 301 303 304 304 301 297 294 293 294 296 295 293 291 290 289 289 291 294 294 288 278 251 183 320 324 309 301 304 310 312 313 315 317 317 316 313 310 310 310 310 310 311 311 311 312 313 313 313 312 311 311 311 312 313 314 315 317 317 318 318 318 317 317 317 316 316 315 313 312 312 311 311 310 308 306 304
305 303 301 300 301 302 302 302 302 302 302 303 303 303 302 302 301 299 298 296 293 290 289 288 289 293 302 311 309 304 327 16 8 341 332 314 305 307 312 312 312 314 317 318 318 314 312 312 312 313 313 313 313 312 312 313 313 313 312 312 312 312 313 314 315 316 317 317 318 318 318 318 318 317 317 316 315 313 312 312 312 312 311 309 307 305
305 303 302 301 302 303 304 304 305 305 306 307 307 308 310 312 312 310 307 301 295 289 286 287 291 303 318 320 314 312 325 338 341 338 332 317 307 306 309 309 310 312 314 314 311 307 305 309 311 313 314 314 313 313 312 312 312 312 312 312 312 312 314 315 316 316 316 317 317 317 317 317 317 317 316 316 315 313 312 313 313 313 312 310 307 305
306 304 302 302 303 305 307 308 309 310 309 310 312 314 317 318 318 317 315 307 297 288 283 286 298 315 317 309 300 299 304 313 324 332 331 321 310 306 308 308 309 311 312 312 309 305 302 303 307 311 313 313 312 312 312 311 311 311 312 313 312 313 314 316 317 316 316 316 316 317 317 316 316 316 315 314 314 313 313 313 313 313 312 310 308 306
307 306 304 304 306 309 311 313 314 314 313 313 314 316 319 319 321 321 319 311 298 286 277 276 290 311 311 305 300 298 301 313 327 333 332 323 313 308 308 308 309 311 313 313 311 309 305 304 307 310 311 311 311 310 310 310 311 312 312 312 312 313 314 316 316 316 315 315 315 315 316 316 315 315 314 314 314 314 315 314 314 313 312 311 309 307
311 310 310 311 313 315 316 317 317 316 316 316 317 319 320 320 322 323 321 314 301 287 277 270 270 284 298 305 306 307 310 319 326 330 329 322 314 309 308 307 309 312 314 313 312 311 309 307 308 309 310 310 310 309 309 311 312 312 312 312 312 312 313 314 314 314 314 314 314 314 314 315 315 315 315 315 316 316 316 315 315 314 313 312 310 308
315 315 316 318 319 319 319 318 317 317 316 317 317 319 320 320 321 322 321 315 302 285 276 273 278 287 295 297 300 302 308 314 319 322 322 318 313 308 306 306 308 311 312 311 310 310 309 308 308 308 309 308 308 309 310 312 314 314 313 313 313 313 312 312 313 313 313 313 313 313 314 315 315 315 316 316 317 317 317 316 316 315 314 313 311 308
319 319 320 322 322 321 319 317 316 316 316 316 316 317 318 318 319 319 319 313 296 275 270 279 290 298 301 301 298 297 300 304 309 311 311 312 311 307 303 302 305 309 310 309 309 310 309 308 308 308 308 306 306 307 310 313 315 315 314 315 315 314 313 313 313 313 312 312 312 313 314 315 316 317 318 318 319 319 319 318 317 317 316 315 314 311
321 321 322 323 323 321 319 317 316 315 314 315 315 315 315 315 316 317 315 306 283 261 274 286 295 302 306 308 307 306 306 306 307 308 309 311 313 311 304 302 304 307 308 308 308 309 309 307 307 307 307 305 304 304 306 311 314 315 315 315 315 314 313 314 314 314 313 313 313 313 315 317 319 319 320 321 321 321 321 320 320 320 320 320 319 317
321 321 321 322 321 320 318 316 315 313 313 313 313 314 314 315 314 312 305 290 257 255 276 291 301 308 314 317 319 318 316 314 312 311 311 313 315 316 312 308 307 308 309 308 307 306 305 303 301 301 303 304 304 304 306 309 311 314 315 316 316 315 315 316 316 315 314 314 315 316 318 320 321 321 321 321 322 321 320 319 319 320 321 321 321 321
319 318 318 318 318 318 316 314 313 313 315 316 316 316 318 320 319 313 292 249 235 263 287 302 314 322 326 327 327 326 324 321 318 314 313 314 316 319 320 317 312 310 311 309 306 303 301 298 296 296 297 298 300 302 305 307 310 313 316 316 315 314 315 316 316 315 315 316 318 319 321 322 322 322 321 320 320 319 317 317 317 318 320 319 318 319
314 314 314 315 315 315 314 313 315 317 320 321 320 320 322 323 326 326 282 221 259 290 306 321 328 328 325 323 320 319 322 323 322 319 317 317 318 320 322 322 317 312 311 308 304 300 297 296 294 294 295 296 298 300 301 304 307 310 312 311 310 310 311 313 314 316 318 320 321 321 321 322 322 322 321 320 318 317 316 316 316 317 319 319 317 316
309 310 311 312 313 312 312 313 318 323 326 324 321 320 320 318 317 312 281 273 301 308 320 335 335 327 316 312 305 301 310 319 324 325 324 323 322 322 323 322 319 314 310 306 303 300 297 295 294 294 295 297 299 301 302 304 306 308 308 307 308 310 312 314 317 321 323 322 322 322 322 322 322 322 320 319 318 318 319 320 319 319 319 321 322 321
307 308 310 310 310 310 311 315 321 327 330 328 324 321 319 316 309 300 304 308 308 319 330 340 338 327 318 317 317 316 315 317 323 327 329 328 327 325 324 322 318 314 310 307 304 302 300 298 296 295 296 298 299 300 300 302 305 306 306 307 310 313 315 316 318 321 322 322 322 322 323 323 322 321 320 319 320 321 323 325 326 327 328 328 329 330
308 310 311 311 311 313 316 320 325 330 332 330 326 324 324 326 340 337 329 323 320 327 339 343 337 328 322 322 324 325 324 322 323 325 328 328 327 326 323 320 317 315 312 309 305 303 304 303 301 299 300 300 299 298 298 299 302 304 306 309 311 311 308 309 313 317 320 320 321 322 323 324 323 322 321 321 322 324 327 329 332 334 337 338 338 338
311 313 314 315 316 317 320 325 330 332 331 328 327 331 339 358 38 343 326 325 327 334 341 340 334 328 326 327 328 329 329 328 327 326 326 325 324 322 320 318 317 316 313 308 304 301 300 300 301 302 303 301 298 295 294 297 300 304 308 311 312 310 307 308 311 315 317 319 320 322 323 324 324 323 322 323 325 327 330 332 334 337 340 342 343 344
317 317 318 318 318 319 321 326 330 331 329 328 332 339 346 345 332 324 327 332 338 340 339 336 332 329 327 328 331 331 331 331 330 328 327 326 326 325 325 323 320 317 313 308 303 297 293 293 295 298 301 301 297 294 292 296 302 307 310 313 314 314 312 312 314 316 317 318 319 321 323 325 325 324 322 323 325 328 332 335 337 338 340 343 345 346
320 319 318 318 318 319 322 326 329 329 326 325 329 331 328 317 314 317 320 330 336 337 334 331 330 329 329 331 333 334 332 330 329 329 328 327 328 328 328 327 325 321 316 311 305 298 292 288 288 289 292 294 295 296 297 301 306 309 312 314 316 316 315 315 317 318 320 319 320 321 324 326 325 324 323 323 325 328 332 336 339 341 343 344 346 346
321 319 318 318 318 319 322 326 328 325 317 313 308 304 296 296 300 305 311 326 332 332 332 332 333 332 332 333 335 334 333 330 328 327 328 329 330 331 331 331 329 327 324 319 312 305 297 289 285 282 279 279 285 293 300 306 310 312 313 315 316 316 315 316 318 321 322 321 322 323 324 324 322 321 321 322 324 325 329 333 338 342 345 346 347 347
324 322 320 319 319 320 323 326 326 318 304 292 283 279 282 290 294 298 306 327 333 332 333 335 336 335 335 335 335 335 333 330 328 328 329 330 332 333 334 334 334 333 332 329 324 318 310 299 288 279 273 268 273 285 297 306 311 313 314 315 315 315 316 317 319 322 323 323 324 325 326 324 322 320 319 318 318 320 323 328 333 338 343 346 348 350
329 326 324 320 319 319 322 323 318 307 290 274 265 268 279 291 300 307 315 327 330 331 335 337 337 336 336 336 336 335 334 332 330 330 331 332 333 334 335 337 338 338 338 337 336 334 330 323 308 289 278 269 269 279 294 306 312 315 316 315 316 317 317 318 319 322 324 324 325 327 328 328 327 326 323 318 317 318 320 325 329 334 339 343 348 352
333 331 328 324 321 320 320 318 310 296 276 259 253 262 279 291 301 312 322 325 328 331 336 337 337 336 336 337 337 335 333 332 331 331 332 333 334 336 337 339 341 342 342 341 341 341 341 340 336 324 308 279 273 283 296 306 313 316 317 318 319 320 320 319 320 322 324 325 326 328 329 329 330 329 326 322 319 320 322 325 327 330 336 343 349 352